Date,TemperatureHighF,TemperatureAvgF,TemperatureLowF,DewpointHighF,DewpointAvgF,DewpointLowF,HumidityHigh,HumidityAvg,HumidityLow,PressureMaxIn,PressureMinIn,WindSpeedMaxMPH,WindSpeedAvgMPH,GustSpeedMaxMPH,PrecipitationSumIn
2014-1-1,54.3,43.4,31.9,45.0,37.2,30.0,93,80,50,30.24,29.96,5,1,6,0.03
2014-1-2,57.3,49.7,45.9,56.0,48.0,44.0,95,93,90,29.95,29.33,10,2,25,0.68
2014-1-3,51.2,36.6,29.0,50.0,22.5,12.0,95,58,40,30.28,29.38,20,9,33,0.00
2014-1-4,45.5,36.2,27.3,41.0,28.3,11.0,92,74,48,30.34,30.09,11,5,14,0.00
2014-1-5,66.8,59.7,43.4,63.0,57.0,42.0,94,90,80,30.09,29.65,15,4,20,0.07
2014-1-6,66.8,55.5,33.5,65.0,49.8,16.0,93,82,46,29.89,29.47,22,8,29,0.04
2014-1-7,32.5,22.4,16.4,16.0,2.6,-4.0,79,44,31,30.35,29.90,19,6,26,0.00
2014-1-8,45.2,27.7,16.9,22.0,13.7,2.0,88,63,19,30.46,30.33,8,1,11,0.00
2014-1-9,51.1,37.9,24.7,40.0,28.9,22.0,92,72,42,30.39,30.28,14,4,16,0.00
2014-1-10,68.7,58.7,42.1,65.0,53.3,38.0,92,83,64,30.27,29.91,16,4,25,0.29
2014-1-11,71.7,65.7,57.7,69.0,63.5,56.0,93,92,82,29.91,29.45,25,9,34,0.36
2014-1-12,58.2,51.5,37.1,56.0,42.0,33.0,93,73,40,30.01,29.49,14,5,23,0.01
2014-1-13,64.5,48.9,32.4,52.0,42.5,31.0,94,80,52,30.05,29.81,13,2,17,0.00
2014-1-14,63.2,56.9,43.0,61.0,54.5,41.0,94,92,83,29.81,29.55,16,3,25,1.01
2014-1-15,46.4,23.6,36.5,44.0,-19.8,-99.9,95,54,92,29.81,29.66,2,-425,3,0.02
2014-1-16,46.4,40.4,30.1,44.0,37.6,29.0,95,90,79,29.89,29.66,13,4,20,0.00
2014-1-17,56.4,44.1,28.5,48.0,33.9,24.0,95,71,34,29.91,29.69,14,4,20,0.00
2014-1-18,55.7,40.0,26.1,49.0,28.6,18.0,90,66,41,29.90,29.62,13,5,23,0.15
2014-1-19,54.8,41.1,25.6,37.0,29.4,22.0,91,66,40,29.89,29.72,14,3,20,0.00
2014-1-20,62.4,48.5,39.2,44.0,36.9,31.0,92,67,36,29.77,29.62,8,3,15,0.00
2014-1-21,62.2,49.3,30.6,49.0,40.2,27.0,92,73,44,29.66,29.27,23,7,26,0.06
2014-1-22,30.8,18.8,19.6,27.0,-12.6,-99.9,90,57,64,29.95,29.52,17,-264,29,0.00
2014-1-23,41.3,28.7,17.0,23.0,16.7,13.0,92,65,32,30.18,29.94,8,2,14,0.00
2014-1-24,31.6,22.8,13.3,17.0,4.3,-1.0,83,47,30,30.38,30.16,16,6,23,0.00
2014-1-25,46.6,33.6,11.9,32.0,20.3,8.0,87,61,34,30.15,29.50,25,6,31,0.00
2014-1-26,51.4,42.7,27.7,38.0,28.0,21.0,79,58,33,29.84,29.66,16,4,19,0.00
2014-1-27,63.0,52.6,40.6,45.0,39.5,31.0,82,62,43,29.84,29.62,22,5,25,0.00
2014-1-28,40.1,29.0,23.2,30.0,21.2,15.0,91,74,56,30.09,29.84,21,12,28,0.00
2014-1-29,25.7,22.9,18.8,21.0,15.7,10.0,91,75,53,30.19,29.89,15,6,18,0.00
2014-1-30,34.7,29.5,23.9,31.0,21.7,11.0,92,73,58,30.21,30.01,11,5,14,0.00
2014-1-31,56.5,38.7,29.1,43.0,34.2,27.0,93,85,60,30.05,29.95,7,2,9,0.10
2014-2-1,55.3,40.7,27.4,44.0,35.9,26.0,94,84,50,30.07,29.91,7,2,10,0.21
2014-2-2,68.6,52.7,42.9,57.0,49.0,41.0,95,88,58,29.94,29.86,11,3,17,0.00
2014-2-3,69.7,57.1,42.0,67.0,54.4,38.0,94,90,84,30.05,29.74,21,6,30,0.01
2014-2-4,43.8,41.4,38.8,42.0,39.3,37.0,94,92,85,30.17,29.88,16,8,20,0.11
2014-2-5,68.1,56.0,43.5,66.0,53.9,42.0,95,92,82,29.87,29.58,19,5,26,0.30
2014-2-6,53.0,40.8,32.6,47.0,32.6,29.0,91,73,63,30.17,29.81,17,8,20,0.00
2014-2-7,46.5,37.7,32.3,35.0,32.2,30.0,93,81,57,30.17,30.07,11,4,13,0.18
2014-2-8,43.6,39.7,35.8,41.0,36.7,33.0,93,89,82,30.09,29.91,12,6,14,0.55
2014-2-9,55.7,42.0,32.1,45.0,36.0,30.0,93,81,50,30.02,29.82,10,3,12,0.00
2014-2-10,48.6,27.0,35.0,45.0,-12.7,-99.9,93,52,73,30.05,29.82,12,-362,16,0.00
2014-2-11,35.0,30.2,27.4,32.0,27.6,23.0,92,90,79,30.18,30.02,18,10,23,0.00
2014-2-12,52.2,35.1,29.1,51.0,32.0,24.0,94,88,80,30.18,29.45,19,11,25,0.07
2014-2-13,54.7,41.4,35.6,53.0,39.2,33.0,94,92,87,29.47,29.20,18,6,26,0.41
2014-2-14,58.2,46.2,34.8,42.0,36.7,32.0,89,71,40,29.65,29.48,14,5,18,0.00
2014-2-15,53.8,46.7,35.5,48.0,37.0,19.0,91,71,43,29.86,29.31,28,7,33,0.05
2014-2-16,53.5,40.8,33.3,36.0,26.5,19.0,90,58,39,29.97,29.85,14,3,15,0.00
2014-2-17,42.5,38.4,33.2,33.0,29.5,27.0,91,71,56,30.20,29.97,15,7,21,0.00
2014-2-18,67.4,50.8,37.6,49.0,41.7,34.0,92,74,36,30.04,29.91,13,3,17,0.00
2014-2-19,71.6,57.0,40.5,60.0,49.9,38.0,93,78,62,29.95,29.72,19,4,23,0.01
2014-2-20,74.7,62.2,51.3,64.0,53.4,37.0,90,74,52,30.03,29.90,15,6,23,0.00
2014-2-21,73.4,66.0,59.9,66.0,62.5,57.0,92,88,75,29.90,29.68,20,7,32,0.04
2014-2-22,63.0,53.0,44.1,55.0,40.1,30.0,93,67,29,29.98,29.82,14,3,14,0.00
2014-2-23,66.4,52.8,38.4,48.0,41.4,32.0,92,70,28,29.93,29.70,7,1,12,0.00
2014-2-24,63.5,52.8,39.9,50.0,43.3,35.0,91,73,36,29.94,29.68,14,4,18,0.00
2014-2-25,66.4,48.3,35.0,52.0,40.3,31.0,92,76,56,29.93,29.68,17,5,22,0.00
2014-2-26,45.9,40.9,36.3,38.0,35.5,32.0,92,81,66,29.79,29.59,12,6,20,0.17
2014-2-27,56.5,41.9,30.5,41.0,34.3,29.0,92,77,42,29.78,29.56,13,3,19,0.01
2014-2-28,43.0,37.3,33.1,36.0,27.1,24.0,92,67,50,30.12,29.78,19,12,24,0.00
2014-3-1,56.3,44.3,34.0,43.0,36.0,28.0,90,73,58,30.14,30.02,15,4,16,0.00
2014-3-2,70.5,54.2,37.8,52.0,43.3,36.0,92,70,42,30.04,29.77,14,4,19,0.00
2014-3-3,69.1,33.3,28.4,54.0,-6.0,-99.9,91,51,57,30.02,29.70,21,-343,29,0.00
2014-3-4,33.2,29.7,25.4,31.0,27.1,22.0,92,89,83,30.09,29.98,18,8,27,0.00
2014-3-5,40.8,36.7,32.7,38.0,34.4,31.0,93,91,85,30.06,29.93,14,7,18,0.06
2014-3-6,48.2,40.9,35.7,46.0,37.2,31.0,93,87,79,30.09,29.76,28,14,31,0.20
2014-3-7,52.6,47.5,41.3,50.0,45.5,39.0,94,92,89,29.73,29.45,29,15,36,0.50
2014-3-8,66.2,49.5,35.0,47.0,39.8,33.0,91,72,38,29.88,29.67,15,4,17,0.00
2014-3-9,68.0,54.5,42.7,48.0,44.1,39.0,89,71,37,29.88,29.78,11,4,16,0.00
2014-3-10,73.7,54.5,37.5,51.0,39.7,30.0,93,65,20,29.85,29.61,10,2,15,0.00
2014-3-11,76.3,60.3,46.3,52.0,46.2,41.0,85,63,30,29.64,29.51,16,3,18,0.00
2014-3-12,68.4,60.8,54.5,61.0,55.2,49.0,90,82,64,29.54,29.13,25,8,35,0.06
2014-3-13,55.5,42.9,30.0,47.0,20.0,11.0,73,42,24,30.06,29.31,23,9,36,0.00
2014-3-14,40.6,11.1,24.3,28.0,-50.8,-99.9,90,33,50,30.18,29.96,1,-599,2,0.00
2014-3-15,73.0,59.9,47.3,49.0,41.9,-99.9,85,58,30,29.96,29.75,15,-17,22,0.00
2014-3-16,55.4,49.6,42.6,51.0,46.1,40.0,93,88,71,29.85,29.61,13,4,21,0.61
2014-3-17,47.1,41.5,37.9,45.0,39.7,36.0,94,93,91,29.72,29.55,21,9,23,0.33
2014-3-18,47.2,43.0,38.3,45.0,41.3,37.0,94,94,92,29.89,29.63,24,10,29,0.16
2014-3-19,58.4,30.2,43.4,54.0,-6.5,-99.9,95,60,85,29.92,29.78,16,-350,20,0.00
2014-3-20,69.7,47.4,45.0,52.0,22.6,-99.9,94,61,27,29.83,29.72,12,-160,17,0.00
2014-3-21,68.9,53.4,41.0,45.0,36.9,28.0,93,59,24,29.97,29.81,12,3,16,0.00
2014-3-22,76.2,60.3,43.1,62.0,50.8,41.0,91,74,31,29.92,29.76,21,6,27,0.00
2014-3-23,63.6,54.9,42.0,60.0,48.2,36.0,93,79,53,29.92,29.69,20,7,25,0.00
2014-3-24,48.8,41.4,36.7,37.0,27.1,15.0,90,61,28,30.07,29.92,20,7,22,0.00
2014-3-25,55.2,43.1,36.7,50.0,38.5,31.0,93,84,63,29.97,29.46,12,4,30,0.94
2014-3-26,47.5,39.0,30.9,36.0,24.6,15.0,90,61,28,30.15,29.66,19,6,25,0.00
2014-3-27,55.5,41.6,26.3,38.0,28.4,19.0,93,66,25,30.32,30.15,13,2,19,0.00
2014-3-28,70.4,58.4,39.3,60.0,52.1,36.0,92,81,65,30.17,29.97,20,6,36,0.06
2014-3-29,69.7,66.0,62.5,66.0,63.1,60.0,94,90,83,29.96,29.44,24,11,37,0.15
2014-3-30,67.0,61.1,53.5,65.0,58.3,48.0,93,90,82,29.43,29.36,17,6,23,0.00
2014-3-31,69.9,60.4,45.4,40.0,34.5,29.0,78,43,22,29.91,29.80,14,3,18,0.00
2014-4-1,76.5,57.8,38.2,54.0,40.8,34.0,92,61,23,29.97,29.85,14,3,17,0.00
2014-4-2,85.1,66.0,51.9,55.0,50.5,45.0,89,62,25,29.92,29.83,18,5,23,0.00
2014-4-3,82.0,67.9,53.2,60.0,53.7,49.0,86,62,41,29.87,29.76,20,5,21,0.00
2014-4-4,83.2,66.1,59.5,62.0,58.4,52.0,92,78,34,29.77,29.63,17,6,24,0.00
2014-4-5,77.0,65.3,57.0,60.0,57.7,51.0,85,77,48,29.86,29.65,12,6,18,0.00
2014-4-6,57.4,54.9,51.1,51.0,43.1,36.0,85,65,54,29.99,29.86,21,11,25,0.00
2014-4-7,75.9,67.7,55.7,70.0,64.0,52.0,92,88,81,29.90,29.59,16,6,28,0.80
2014-4-8,70.1,66.7,61.6,66.0,63.5,55.0,93,89,79,29.64,29.42,25,7,27,0.30
2014-4-9,68.7,60.0,51.7,55.0,47.9,41.0,89,66,37,30.08,29.60,14,4,20,0.00
2014-4-10,72.4,59.9,43.2,52.0,45.2,37.0,93,64,28,30.28,30.09,16,4,23,0.00
2014-4-11,78.0,66.9,56.9,57.0,53.8,48.0,89,65,36,30.27,30.12,20,7,28,0.00
2014-4-12,79.7,68.0,57.0,59.0,55.6,54.0,89,67,41,30.24,30.16,11,4,17,0.00
2014-4-13,77.6,66.2,52.6,63.0,58.0,50.0,92,77,53,30.25,30.16,17,4,24,0.00
2014-4-14,77.7,69.0,56.4,67.0,61.6,54.0,91,78,57,30.15,29.92,24,7,27,0.00
2014-4-15,73.8,69.2,49.7,69.0,65.6,48.0,93,88,76,29.91,29.65,19,11,37,0.50
2014-4-16,49.3,41.9,38.2,47.0,35.8,28.0,93,79,64,30.28,29.87,24,14,33,0.00